Quincy, IL

5:40 AM CDT on May 28, 2018 (GMT -0500)
Quincy Regional-Baldwin

Weather History for KUIN - November, 2013

Change the Weather History Date:

Tuesday, November 12, 2013

  Actual Average Record
Temperature  
Mean Temperature 26 °F 44 °F  
Max Temperature 33 °F 53 °F 74 °F (1999)
Min Temperature 19 °F 35 °F 10 °F (1986)
Degree Days  
Heating Degree Days 39 21  
Month to date heating degree days 245 218  
Since 1 July heating degree days 618 642  
Cooling Degree Days 0 0  
Month to date cooling degree days 0 0  
Year to date cooling degree days 1242 1093  
Moisture  
Dew Point 13 °F    
Average Humidity 60    
Maximum Humidity 80    
Minimum Humidity 39    
Precipitation  
Precipitation 0.00 in 0.10 in 2.84 in (1922)
Month to date precipitation 0.85 1.22  
Year to date precipitation 33.59 33.28  
Sea Level Pressure  
Sea Level Pressure 30.71 in    
Wind  
Wind Speed 8 mph (NNW)    
Max Wind Speed 14 mph    
Max Gust Speed 18 mph    
Visibility 10 miles    
Events      
T = Trace of Precipitation, MM = Missing Value Source: NWS Daily Summary

Daily Weather History Graph

Daily Weather History Graph

Search for Another Location

Airport or City:

Astronomy

Nov. 12, 2013 Rise Set
Actual Time 6:46 AM CST 4:50 PM CST
Civil Twilight 6:17 AM CST 5:19 PM CST
Nautical Twilight 5:45 AM CST 5:52 PM CST
Astronomical Twilight 5:13 AM CST 6:24 PM CST
Moon 2:05 PM CST (11/12) 1:36 AM CST (11/12)
Length of Visible Light 11h 01m
Length of Day
10h 04m
Waxing Gibbous, 76% of the Moon is Illuminated
Nov 12
Waxing Gibbous
Nov 17
Full
Nov 25
Last Quarter
Dec 2
New
Dec 9
First Quarter

Hourly Weather History & Observations

Time (CST) Temp. Windchill Dew Point Humidity Pressure Visibility Wind Dir Wind Speed Gust Speed Precip Events Conditions
12:33 AM 24.8 °F 13.4 °F 17.6 °F 74% 30.60 in 10.0 mi North 12.7 mph - N/A   Partly Cloudy
12:54 AM 24.1 °F 11.5 °F 17.1 °F 75% 30.63 in 10.0 mi North 15.0 mph - N/A   Clear
1:54 AM 21.9 °F 9.8 °F 16.0 °F 78% 30.64 in 10.0 mi North 12.7 mph - N/A   Clear
2:54 AM 21.0 °F 9.9 °F 12.9 °F 71% 30.66 in 10.0 mi North 10.4 mph - N/A   Clear
3:54 AM 19.9 °F 7.9 °F 12.9 °F 74% 30.70 in 10.0 mi NNW 11.5 mph - N/A   Clear
4:54 AM 19.0 °F 7.5 °F 12.0 °F 74% 30.72 in 10.0 mi NNW 10.4 mph - N/A   Clear
5:54 AM 18.0 °F 6.9 °F 12.0 °F 78% 30.75 in 10.0 mi NNW 9.2 mph - N/A   Clear
6:54 AM 17.1 °F 4.3 °F 12.0 °F 81% 30.79 in 10.0 mi NNW 11.5 mph - N/A   Clear
7:54 AM 19.0 °F 9.0 °F 12.9 °F 77% 30.80 in 10.0 mi NNW 8.1 mph - N/A   Clear
8:54 AM 21.9 °F 11.7 °F 12.9 °F 68% 30.82 in 10.0 mi NNW 9.2 mph - N/A   Clear
9:54 AM 26.1 °F 18.4 °F 15.1 °F 63% 30.82 in 10.0 mi NNW 6.9 mph - N/A   Clear
12:54 PM 30.9 °F 20.7 °F 12.9 °F 47% 30.75 in 10.0 mi North 13.8 mph - N/A   Clear
1:54 PM 32.0 °F 23.6 °F 12.9 °F 45% 30.74 in 10.0 mi WNW 10.4 mph - N/A   Clear
2:54 PM 32.0 °F 24.2 °F 10.9 °F 42% 30.73 in 10.0 mi NNW 9.2 mph - N/A   Clear
3:54 PM 32.0 °F 23.6 °F 10.9 °F 42% 30.73 in 10.0 mi NW 10.4 mph - N/A   Clear
4:54 PM 28.0 °F 21.7 °F 12.0 °F 51% 30.70 in 10.0 mi NW 5.8 mph - N/A   Clear
5:54 PM 28.0 °F - 10.9 °F 49% 30.70 in 10.0 mi Calm Calm - N/A   Clear
6:54 PM 26.1 °F 20.5 °F 10.9 °F 53% 30.70 in 10.0 mi NNW 4.6 mph - N/A   Clear
7:54 PM 25.0 °F 20.7 °F 10.9 °F 55% 30.69 in 10.0 mi NW 3.5 mph - N/A   Clear
8:54 PM 24.1 °F - 10.9 °F 57% 30.69 in 10.0 mi Calm Calm - N/A   Clear
9:54 PM 21.9 °F - 12.0 °F 66% 30.68 in 10.0 mi Calm Calm - N/A   Clear
10:54 PM 21.0 °F 16.2 °F 10.9 °F 65% 30.68 in 10.0 mi South 3.5 mph - N/A   Clear
11:54 PM 21.9 °F - 10.9 °F 63% 30.71 in 10.0 mi Calm Calm - N/A   Clear